Weather History for Paynesville, MN

Change the Weather History Date:

Tuesday, November 6, 2012

  Actual Average (KLJF) Record (KLJF)
Temperature  
Mean Temperature 38 °F -  
Max Temperature 41 °F 44 °F 69 °F (2001)
Min Temperature 35 °F 27 °F -1 °F (1991)
Degree Days  
Heating Degree Days 27    
Moisture  
Dew Point 35 °F    
Average Humidity 89    
Maximum Humidity 97    
Minimum Humidity 80    
Precipitation  
Precipitation 0.09 in - - ()
Sea Level Pressure  
Sea Level Pressure 29.85 in    
Wind  
Wind Speed 11 mph (WNW)    
Max Wind Speed 18 mph    
Max Gust Speed 28 mph    
Visibility 8 miles    
Events Rain , Snow    
Averages and records for this station are not official NWS values.
T = Trace of Precipitation, MM = Missing Value Source: NWS Daily Summary

Daily Weather History Graph

Daily Weather History Graph

Search for Another Location

Airport:

Trip Planner

Search our weather history database for the weather conditions in past years. The results will help you decide how hot, cold, wet, or windy it might be!

Date:

Astronomy

Nov. 06, 2012 Rise Set
Actual Time 7:05 AM CST 4:58 PM CST
Civil Twilight 6:34 AM CST 5:30 PM CST
Nautical Twilight 5:59 AM CST 6:05 PM CST
Astronomical Twilight 5:24 AM CST 6:39 PM CST
Moon 11:42 PM CST (11/6) 12:56 PM CST (11/6)
Length of Visible Light 10h 55m
Length of Day
9h 52m
Waning Gibbous, 53% of the Moon is Illuminated
Nov 6
Waning Gibbous
Nov 6
Last Quarter
Nov 13
New
Nov 20
First Quarter
Nov 28
Full

Hourly Weather History & Observations

Time (CST) Temp. Windchill Dew Point Humidity Pressure Visibility Wind Dir Wind Speed Gust Speed Precip Events Conditions
12:13 AM 36.5 °F 31.0 °F 34.7 °F 93% 29.88 in 5.0 mi South 6.9 mph - N/A Rain Rain
12:33 AM 36.5 °F 30.3 °F 34.7 °F 93% 29.87 in 4.0 mi South 8.1 mph - N/A Rain Rain
12:53 AM 36.1 °F 29.3 °F 34.2 °F 93% 29.86 in 4.0 mi South 9.2 mph 18.4 mph 0.01 in Rain Rain
1:13 AM 35.1 °F 27.4 °F 33.4 °F 94% 29.84 in 3.0 mi South 10.4 mph - 0.03 in Snow Light Snow
1:33 AM 35.2 °F 28.1 °F 33.8 °F 94% 29.82 in 5.0 mi South 9.2 mph 17.3 mph 0.03 in Rain Light Rain
1:54 AM 35.1 °F 26.9 °F 33.8 °F 95% 29.82 in 5.0 mi South 11.5 mph - 0.03 in   Light Drizzle
2:13 AM 35.2 °F 27.6 °F 33.8 °F 94% 29.81 in 4.0 mi South 10.4 mph - N/A Rain Light Rain
2:33 AM 35.6 °F 28.0 °F 34.2 °F 94% 29.80 in 4.0 mi South 10.4 mph - N/A Rain Light Rain
2:53 AM 35.8 °F 28.3 °F 34.3 °F 94% 29.79 in 3.0 mi South 10.4 mph 16.1 mph 0.02 in Rain Light Rain
3:13 AM 35.1 °F 27.4 °F 33.8 °F 95% 29.79 in 4.0 mi South 10.4 mph - 0.03 in Snow Light Snow
3:33 AM 35.4 °F 27.8 °F 34.2 °F 95% 29.78 in 5.0 mi SSW 10.4 mph - 0.03 in   Overcast
3:53 AM 36.0 °F 28.0 °F 34.7 °F 95% 29.77 in 5.0 mi South 11.5 mph 17.3 mph 0.03 in   Overcast
4:13 AM 36.1 °F 29.3 °F 34.9 °F 95% 29.77 in 3.0 mi SSW 9.2 mph - N/A   Overcast
4:33 AM 36.5 °F 30.3 °F 35.6 °F 97% 29.77 in 4.0 mi SW 8.1 mph - N/A   Overcast
4:53 AM 37.0 °F 32.4 °F 36.0 °F 96% 29.77 in 5.0 mi West 5.8 mph - N/A   Overcast
5:13 AM 37.4 °F 29.8 °F 36.5 °F 97% 29.76 in 7.0 mi WSW 11.5 mph - N/A   Overcast
5:33 AM 37.8 °F 31.3 °F 36.5 °F 95% 29.76 in 7.0 mi West 9.2 mph - N/A   Overcast
5:53 AM 37.9 °F 31.5 °F 36.7 °F 95% 29.76 in 7.0 mi West 9.2 mph - N/A   Overcast
6:14 AM 38.3 °F 30.9 °F 37.0 °F 95% 29.76 in 7.0 mi West 11.5 mph - N/A   Overcast
6:33 AM 39.2 °F 32.5 °F 36.5 °F 90% 29.76 in 10.0 mi WNW 10.4 mph - N/A   Overcast
6:53 AM 38.8 °F 30.4 °F 35.8 °F 89% 29.77 in 10.0 mi WNW 15.0 mph 20.7 mph N/A   Overcast
7:14 AM 38.3 °F 30.1 °F 35.2 °F 89% 29.78 in 10.0 mi WNW 13.8 mph - N/A   Overcast
7:33 AM 37.2 °F 29.1 °F 34.5 °F 90% 29.79 in 10.0 mi West 12.7 mph - N/A   Overcast
7:53 AM 36.7 °F 28.0 °F 33.8 °F 89% 29.79 in 10.0 mi West 13.8 mph - N/A   Overcast
8:14 AM 36.7 °F 28.4 °F 33.8 °F 89% 29.80 in 10.0 mi WNW 12.7 mph 18.4 mph N/A   Overcast
8:33 AM 37.4 °F 29.3 °F 33.8 °F 87% 29.81 in 10.0 mi WNW 12.7 mph 19.6 mph N/A   Overcast
8:53 AM 38.3 °F 29.7 °F 33.8 °F 84% 29.81 in 10.0 mi WNW 15.0 mph 20.7 mph N/A   Overcast
9:13 AM 39.2 °F 31.2 °F 34.7 °F 84% 29.81 in 10.0 mi WNW 13.8 mph 21.9 mph N/A   Mostly Cloudy
9:33 AM 39.2 °F 29.8 °F 34.9 °F 84% 29.81 in 10.0 mi WNW 18.4 mph 25.3 mph N/A   Overcast
9:53 AM 39.6 °F 31.3 °F 35.1 °F 84% 29.82 in 10.0 mi WNW 15.0 mph 21.9 mph N/A   Overcast
10:13 AM 39.6 °F 31.0 °F 34.7 °F 83% 29.82 in 10.0 mi WNW 16.1 mph 25.3 mph N/A   Overcast
10:33 AM 39.4 °F 31.4 °F 34.9 °F 84% 29.82 in 10.0 mi WNW 13.8 mph 20.7 mph N/A   Overcast
10:53 AM 39.7 °F 30.9 °F 35.4 °F 85% 29.82 in 10.0 mi WNW 17.3 mph 25.3 mph N/A   Overcast
11:13 AM 39.4 °F 30.4 °F 36.0 °F 88% 29.82 in 7.0 mi WNW 17.3 mph 27.6 mph N/A   Overcast
11:33 AM 39.4 °F 31.4 °F 36.0 °F 88% 29.82 in 10.0 mi WNW 13.8 mph 19.6 mph N/A   Overcast
11:53 AM 40.1 °F 31.6 °F 36.0 °F 85% 29.82 in 10.0 mi WNW 16.1 mph 19.6 mph N/A   Overcast
12:13 PM 40.3 °F 32.2 °F 35.8 °F 84% 29.82 in 10.0 mi WNW 15.0 mph 21.9 mph N/A   Overcast
12:33 PM 40.6 °F 32.0 °F 35.6 °F 82% 29.81 in 10.0 mi WNW 17.3 mph 25.3 mph N/A   Overcast
12:53 PM 41.0 °F 33.9 °F 35.2 °F 80% 29.82 in 10.0 mi WNW 12.7 mph 25.3 mph N/A   Overcast
1:14 PM 40.6 °F 31.7 °F 35.6 °F 82% 29.82 in 10.0 mi WNW 18.4 mph 24.2 mph N/A   Overcast
1:33 PM 41.0 °F 34.3 °F 35.2 °F 80% 29.82 in 10.0 mi WNW 11.5 mph 21.9 mph N/A   Overcast
1:53 PM 40.5 °F 31.8 °F 35.6 °F 83% 29.82 in 10.0 mi WNW 17.3 mph 21.9 mph N/A   Light Drizzle
2:13 PM 40.1 °F 32.4 °F 35.6 °F 84% 29.82 in 7.0 mi NW 13.8 mph 24.2 mph N/A Rain Light Rain
2:33 PM 40.3 °F 32.2 °F 36.1 °F 85% 29.83 in 10.0 mi WNW 15.0 mph 21.9 mph N/A   Light Drizzle
2:53 PM 40.3 °F 32.6 °F 36.1 °F 85% 29.84 in 10.0 mi NW 13.8 mph 20.7 mph N/A   Drizzle
3:13 PM 40.1 °F 32.0 °F 36.5 °F 87% 29.84 in 10.0 mi WNW 15.0 mph 24.2 mph N/A Rain Light Rain
3:33 PM 39.9 °F 31.8 °F 36.3 °F 87% 29.85 in 7.0 mi NW 15.0 mph 20.7 mph N/A Rain Rain
3:53 PM 39.6 °F 32.1 °F 36.7 °F 89% 29.86 in 5.0 mi NW 12.7 mph 19.6 mph N/A   Drizzle
4:13 PM 39.6 °F 33.5 °F 37.0 °F 91% 29.86 in 5.0 mi NW 9.2 mph 18.4 mph N/A Rain Light Rain
4:34 PM 39.6 °F 33.5 °F 36.7 °F 89% 29.87 in 10.0 mi NW 9.2 mph 19.6 mph N/A   Overcast
4:53 PM 39.6 °F 33.0 °F 36.5 °F 89% 29.88 in 10.0 mi NW 10.4 mph - N/A Rain Rain
5:13 PM 39.6 °F 31.0 °F 36.5 °F 89% 29.89 in 10.0 mi NW 16.1 mph 20.7 mph N/A   Light Drizzle
5:34 PM 39.4 °F 30.7 °F 36.0 °F 88% 29.89 in 10.0 mi NW 16.1 mph 26.5 mph N/A   Drizzle
5:53 PM 39.0 °F 31.0 °F 36.5 °F 91% 29.91 in 7.0 mi NW 13.8 mph 18.4 mph N/A Rain Rain
6:13 PM 39.0 °F 30.3 °F 36.0 °F 89% 29.91 in 10.0 mi NW 16.1 mph 21.9 mph N/A Rain Light Rain
6:33 PM 38.7 °F 30.9 °F 35.8 °F 89% 29.92 in 10.0 mi NW 12.7 mph - N/A   Overcast
6:53 PM 38.5 °F 30.7 °F 35.8 °F 90% 29.93 in 7.0 mi NW 12.7 mph 18.4 mph N/A Rain Light Rain
7:13 PM 38.5 °F 31.1 °F 35.6 °F 89% 29.94 in 10.0 mi NW 11.5 mph 18.4 mph N/A   Overcast
7:33 PM 38.5 °F 30.3 °F 35.4 °F 89% 29.94 in 10.0 mi NW 13.8 mph 19.6 mph N/A   Overcast
7:53 PM 38.3 °F 30.5 °F 35.2 °F 89% 29.94 in 10.0 mi NW 12.7 mph 17.3 mph N/A   Overcast
8:13 PM 38.3 °F 31.4 °F 35.1 °F 88% 29.95 in 10.0 mi NW 10.4 mph 17.3 mph N/A   Overcast
8:33 PM 38.3 °F 30.9 °F 35.1 °F 88% 29.95 in 10.0 mi NW 11.5 mph 16.1 mph N/A   Overcast
8:53 PM 38.3 °F 30.9 °F 34.9 °F 87% 29.96 in 10.0 mi NW 11.5 mph 16.1 mph N/A   Overcast
9:13 PM 38.3 °F 30.9 °F 34.9 °F 87% 29.96 in 10.0 mi NW 11.5 mph - N/A   Overcast
9:33 PM 38.3 °F 32.5 °F 34.9 °F 87% 29.97 in 10.0 mi NW 8.1 mph - N/A   Overcast
9:53 PM 38.3 °F 30.9 °F 34.7 °F 87% 29.97 in 10.0 mi NW 11.5 mph - N/A   Overcast
10:14 PM 38.3 °F 31.4 °F 34.7 °F 87% 29.98 in 10.0 mi NNW 10.4 mph - N/A   Overcast
10:34 PM 38.3 °F 30.9 °F 34.2 °F 85% 29.98 in 10.0 mi NNW 11.5 mph 17.3 mph N/A   Overcast
10:53 PM 38.1 °F 31.7 °F 34.2 °F 86% 29.98 in 10.0 mi NNW 9.2 mph - N/A   Overcast
11:13 PM 38.3 °F 31.9 °F 34.2 °F 85% 29.99 in 10.0 mi NNW 9.2 mph - N/A   Overcast
11:34 PM 38.1 °F 32.3 °F 34.2 °F 86% 30.01 in 10.0 mi NNW 8.1 mph - N/A   Overcast
11:53 PM 37.9 °F 34.4 °F 34.3 °F 87% 30.01 in 10.0 mi NNW 4.6 mph - N/A   Overcast